[[{"header":{"parameterUnit":"m.s-1","parameterCategory":2,"la1":30.2991,"la2":30.254,"lo1":-89.0895,"lo2":-89.0444,"dy":0.0017,"dx":0.0017,"nx":28,"ny":28,"refTime":"2025-03-30T03:00:00:Z","depth":"0","parameterNumber":2,"parameterNumberName":"U-component_of_CURRENTS"},"data":[0,0,0,0,0,0,0,0,0,0,0,0,0,0,0,0,0,0,0,0,0,0,0,0,0,0,0,0,0,0,0,0,0,0,0,0,0,0,0,0,0,0,0,0,0,0,0,0,0,0,0,0,0,0,0,0,0,0,0.2279,0.2279,0,0.2249,0.2249,0.2248,0.2202,0.2201,0.2201,0.22,0.2165,0.2165,0.2165,0,0,0,0,0,0,0,0,0,0,0,0,0,0.2317,0.2316,0.2279,0.2279,0.2279,0.2249,0.2249,0.2248,0.2202,0.2201,0.2201,0.22,0.2166,0.2165,0.2165,0,0,0,0,0,0,0,0,0,0,0,0,0,0.2293,0.2316,0.2279,0.2254,0.2251,0.2249,0.2249,0.2248,0.2202,0.2201,0.22,0.2199,0.2166,0.2165,0.2165,0.2182,0,0,0.2163,0.2163,0,0,0,0,0,0,0,0,0.2295,0.2292,0.2258,0.2255,0.2253,0.223,0.2249,0.2226,0.2203,0.2219,0.22,0.2199,0.2188,0.2186,0.218,0.2181,0.2179,0.2163,0.2163,0.2163,0.2163,0,0,0,0,0,0,0,0.2296,0.2293,0.2266,0.2258,0.2254,0.225,0.2245,0.2245,0.2209,0.2218,0.2215,0.2214,0.2186,0.2181,0.2179,0.2179,0.2163,0.2163,0.2163,0.2163,0.2231,0.2233,0,0,0,0,0,0,0.2303,0.2294,0.2267,0.2265,0.2273,0.225,0.2245,0.2237,0.2209,0.2204,0.2215,0.2212,0.2182,0.218,0.2178,0.2221,0.2163,0.2163,0.2162,0.2229,0.2232,0.2234,0,0,0,0,0,0,0.2304,0.2301,0.2268,0.2281,0.2276,0.2251,0.2242,0.2237,0.2236,0.2207,0.2201,0.222,0.2181,0.2178,0.2191,0.2219,0.2162,0.2162,0.2227,0.223,0.2233,0.2293,0,0,0,0,0,0,0.2305,0.2301,0.2304,0.2281,0.2276,0.2278,0.2243,0.2237,0.2237,0.2233,0.221,0.2205,0.218,0.2193,0.2191,0.2217,0.2162,0.2224,0.2228,0.2232,0.2288,0.2298,0.2306,0,0,0,0,0,0.2306,0.2312,0.2304,0.2302,0.2279,0.2279,0.2277,0.2254,0.2239,0.2248,0.2235,0.2206,0.2216,0.2194,0.2192,0.2218,0.2222,0.2227,0.2231,0.2285,0.2296,0.2306,0,0,0,0,0,0,0.2326,0.2308,0.2298,0.2297,0.2295,0.2272,0.2279,0.2266,0.2262,0.2259,0.2228,0.2223,0.2246,0.2232,0.2208,0.2253,0.2217,0.2222,0.2258,0.2269,0.2278,0.2281,0.2161,0,0,0,0,0,0.2334,0.2334,0.232,0.2321,0.2324,0.2306,0.2305,0.2293,0.2284,0.228,0.2264,0.2258,0.2265,0.2265,0.2265,0.2289,0.2287,0.2309,0.2317,0.2325,0.2329,0.2359,0.2371,0.2249,0.2249,0.2249,0,0,0.2339,0.2333,0.2331,0.2327,0.2322,0.2329,0.2302,0.2309,0.2316,0.2279,0.229,0.2287,0.2279,0.2303,0.2313,0.2293,0.2361,0.2331,0.2337,0.2337,0.2365,0.2377,0.2387,0.2252,0.2252,0.2251,0,0,0.2351,0.235,0.2353,0.2359,0.2362,0.2357,0.2364,0.2353,0.2352,0.2366,0.2348,0.2368,0.2364,0.237,0.2371,0.2434,0.2407,0.2435,0.2478,0.2508,0.2518,0.2526,0.2546,0.2555,0.2438,0.2439,0.2439,0,0.2356,0.2357,0.2357,0.2368,0.2375,0.2372,0.2383,0.2389,0.2385,0.2396,0.2379,0.2404,0.2398,0.2436,0.2456,0.2453,0.2459,0.2433,0.2518,0.2526,0.2534,0.2552,0.2562,0.2442,0.2442,0.2441,0.2441,0,0.2368,0.2376,0.2384,0.2394,0.2409,0.2421,0.2431,0.245,0.2451,0.2453,0.2491,0.249,0.2503,0.2514,0.25,0.2559,0.2542,0.2524,0.2486,0.2549,0.2565,0.2574,0.2447,0.2446,0.2445,0.2444,0,0,0.2341,0.2381,0.2381,0.2392,0.2423,0.2428,0.2469,0.2496,0.2517,0.2534,0.2563,0.2592,0.2594,0.2598,0.2594,0.2623,0.2686,0.2598,0.2598,0.2609,0.2747,0.2739,0.2748,0.2678,0.268,0.2681,0.2738,0,0.2341,0.2365,0.239,0.2415,0.2427,0.2459,0.2492,0.2525,0.255,0.2583,0.2611,0.2634,0.2625,0.2634,0.2668,0.2678,0.2712,0.2672,0.2692,0.2692,0.267,0.2759,0.2694,0.2739,0.2746,0.2748,0.2749,0,0.233,0.2351,0.2375,0.2421,0.243,0.2449,0.2503,0.2535,0.26,0.2621,0.2668,0.2682,0.2739,0.2712,0.2779,0.2751,0.276,0.2766,0.2768,0.2744,0.2702,0.2677,0.2755,0.2705,0.2763,0.2762,0.2761,0,0.2291,0.2334,0.2352,0.2367,0.2423,0.2444,0.2477,0.2542,0.2576,0.2647,0.2676,0.274,0.2769,0.2802,0.283,0.2805,0.2894,0.2857,0.2861,0.2859,0.28,0.279,0.2823,0.2908,0.2908,0.2908,0.2908,0,0.2271,0.2281,0.2332,0.2339,0.2366,0.2417,0.2455,0.2504,0.2577,0.2618,0.2687,0.2731,0.2793,0.2849,0.286,0.2903,0.2924,0.2891,0.2885,0.2821,0.2813,0.2761,0.2731,0.291,0.291,0.2909,0.2909,0,0.222,0.2255,0.2275,0.233,0.2345,0.2363,0.2432,0.2462,0.2541,0.26,0.2625,0.2738,0.2818,0.2878,0.2941,0.2942,0.2907,0.2981,0.2901,0.2886,0.2827,0.2803,0.2709,0.2621,0.2993,0.2994,0.2994,0,0.2195,0.2202,0.2251,0.2261,0.2282,0.2318,0.2344,0.2429,0.2469,0.2596,0.2621,0.2735,0.2804,0.2921,0.296,0.3008,0.2913,0.2959,0.2903,0.2842,0.281,0.2677,0.2598,0.2848,0.2848,0.2847,0.2846,0,0.2151,0.217,0.2191,0.221,0.2229,0.2251,0.2298,0.232,0.2422,0.2483,0.2574,0.2645,0.2798,0.2847,0.2939,0.2954,0.2834,0.2944,0.2902,0.2732,0.2565,0.2471,0.2787,0.2839,0.284,0.2841,0.2841,0.2841,0.2116,0.2117,0.2143,0.2153,0.217,0.2165,0.2151,0.2214,0.2259,0.2326,0.2463,0.2543,0.2719,0.2854,0.2848,0.2843,0.2785,0.2784,0.277,0.2647,0.253,0.2835,0.2867,0.2868,0.2868,0.2869,0.2869,0,0.2065,0.2071,0.2082,0.2079,0.2054,0.209,0.2102,0.2075,0.2083,0.221,0.2283,0.2454,0.256,0.2678,0.2775,0.2696,0.2542,0.2632,0.2434,0.2372,0.2681,0.2645,0.2602,0.2602,0.2602,0.2602,0.2603,0.2603,0.204,0.2023,0.2023,0.1958,0.1948,0.1877,0.1855,0.1845,0.1906,0.1973,0.2072,0.22,0.2486,0.2689,0.2682,0.2602,0.2382,0.2294,0.2248,0.25,0.2512,0.2523,0.2483,0.2408,0.2407,0.1839,0.1835,0.1832]},{"header":{"parameterUnit":"m.s-1","parameterCategory":2,"la1":30.2991,"la2":30.254,"lo1":-89.0895,"lo2":-89.0444,"dy":0.0017,"dx":0.0017,"nx":28,"ny":28,"refTime":"2025-03-30T03:00:00:Z","depth":"0","parameterNumber":3,"parameterNumberName":"V-component_of_CURRENTS"},"data":[0,0,0,0,0,0,0,0,0,0,0,0,0,0,0,0,0,0,0,0,0,0,0,0,0,0,0,0,0,0,0,0,0,0,0,0,0,0,0,0,0,0,0,0,0,0,0,0,0,0,0,0,0,0,0,0,0,0,0.0059,0.0058,0,-0.0009,-0.001,-0.0011,-0.0054,-0.0055,-0.0055,-0.0055,-0.0156,-0.0159,-0.0161,0,0,0,0,0,0,0,0,0,0,0,0,0,0.0096,0.0095,0.0059,0.0058,0.0058,-0.0009,-0.001,-0.0011,-0.0054,-0.0055,-0.0055,-0.0055,-0.0156,-0.0159,-0.0162,0,0,0,0,0,0,0,0,0,0,0,0,0,0.0058,0.0095,0.0059,0.0029,0.0026,-0.0009,-0.001,-0.0011,-0.0054,-0.0055,-0.0055,-0.0055,-0.0155,-0.0158,-0.0162,-0.0182,0,0,-0.0174,-0.0176,0,0,0,0,0,0,0,0,0.006,0.0056,0.0034,0.0031,0.0027,-0.0022,-0.0034,-0.007,-0.0054,-0.0025,-0.0055,-0.0055,-0.0114,-0.0121,-0.0135,-0.0187,-0.0191,-0.0174,-0.0177,-0.0178,-0.0179,0,0,0,0,0,0,0,0.0063,0.0059,0.0031,0.0033,0.0029,-0.0,-0.0005,-0.0041,-0.0069,-0.0028,-0.0031,-0.0036,-0.0116,-0.0131,-0.0137,-0.0193,-0.0174,-0.0178,-0.018,-0.0182,-0.0255,-0.0255,0,0,0,0,0,0,0.0077,0.0061,0.0033,0.0029,0.0045,-0.0,-0.0006,-0.0007,-0.0068,-0.0077,-0.0036,-0.0038,-0.0124,-0.0133,-0.0141,-0.0149,-0.0178,-0.0182,-0.0184,-0.0256,-0.0255,-0.0255,0,0,0,0,0,0,0.0078,0.0075,0.0036,0.0044,0.0037,-0.0,-0.0001,-0.0008,-0.002,-0.0074,-0.0083,-0.004,-0.0125,-0.0136,-0.0165,-0.0154,-0.0184,-0.0187,-0.0256,-0.0256,-0.0255,-0.0177,0,0,0,0,0,0,0.008,0.0076,0.0079,0.0046,0.0038,0.0024,-0.0001,-0.001,-0.0023,-0.0026,-0.008,-0.009,-0.0126,-0.0159,-0.0169,-0.016,-0.019,-0.0257,-0.0256,-0.0255,-0.018,-0.0174,-0.0168,0,0,0,0,0,0.0081,0.0089,0.0079,0.0076,0.0043,0.0024,0.0018,-0.0011,-0.0022,-0.0024,-0.0058,-0.0088,-0.0161,-0.0161,-0.0173,-0.0165,-0.0257,-0.0256,-0.0255,-0.0182,-0.0175,-0.0169,0,0,0,0,0,0,0.0107,0.0085,0.0073,0.0074,0.0055,0.0018,0.0014,-0.0005,-0.0034,-0.0036,-0.0086,-0.0098,-0.012,-0.0154,-0.0152,-0.0185,-0.0213,-0.0215,-0.0154,-0.0147,-0.0142,-0.0121,-0.0193,0,0,0,0,0,0.0114,0.0115,0.0088,0.0089,0.0083,0.005,0.0038,0.0021,-0.0008,-0.002,-0.0057,-0.0095,-0.0126,-0.0145,-0.0179,-0.0198,-0.0226,-0.0201,-0.0195,-0.019,-0.0181,-0.0214,-0.021,-0.0252,-0.0252,-0.0252,0,0,0.0124,0.0112,0.0112,0.0094,0.0076,0.0076,0.0042,0.0033,0.0033,-0.0027,-0.0038,-0.0077,-0.0127,-0.0146,-0.0158,-0.0172,-0.0191,-0.0189,-0.0184,-0.0178,-0.0213,-0.0209,-0.0205,-0.0252,-0.0252,-0.0252,0,0,0.0147,0.0135,0.0144,0.0134,0.0116,0.0098,0.01,0.007,0.0057,0.0039,-0.0,-0.0028,-0.008,-0.0108,-0.013,-0.0115,-0.016,-0.0129,-0.0083,-0.0115,-0.0112,-0.0109,-0.0132,-0.0132,-0.0125,-0.0125,-0.0125,0,0.016,0.0169,0.0143,0.0152,0.0151,0.0114,0.0128,0.011,0.0075,0.0069,0.0046,-0.0018,-0.006,-0.0079,-0.0073,-0.01,-0.0125,-0.0103,-0.0107,-0.0105,-0.0103,-0.0127,-0.0128,-0.0121,-0.0122,-0.0122,-0.0123,0,0.019,0.0198,0.0205,0.0205,0.02,0.0207,0.0184,0.0178,0.0157,0.0134,0.0111,0.0053,0.0017,-0.0001,-0.0035,-0.0043,-0.0064,-0.0094,-0.012,-0.0094,-0.0121,-0.0123,-0.0116,-0.0117,-0.0118,-0.0119,0,0,0.022,0.0226,0.0229,0.0244,0.0233,0.0236,0.0241,0.0235,0.0245,0.02,0.0204,0.0146,0.0114,0.0087,0.0041,0.0013,0.0001,-0.003,-0.0034,-0.0043,-0.0063,-0.0071,-0.0075,-0.0031,-0.0031,-0.0031,-0.0082,0,0.0254,0.0287,0.0278,0.0313,0.0331,0.0309,0.0322,0.0311,0.0289,0.0282,0.0224,0.0204,0.0148,0.0133,0.0097,0.0025,-0.0003,0.0018,-0.0093,-0.0096,-0.01,-0.0077,-0.0049,-0.0091,-0.0085,-0.0085,-0.0085,0,0.0289,0.0309,0.0347,0.0378,0.0385,0.0397,0.0415,0.042,0.0398,0.0378,0.0344,0.0298,0.0254,0.0199,0.0098,0.0113,0.0037,-0.0024,-0.0028,-0.0064,-0.0109,-0.0119,-0.0096,-0.022,-0.009,-0.0089,-0.0089,0,0.0326,0.0361,0.0396,0.0404,0.0426,0.0443,0.0455,0.0448,0.047,0.0438,0.0443,0.0374,0.0347,0.0244,0.0124,0.011,0.0009,-0.003,-0.0109,-0.0111,-0.0122,-0.0124,-0.0225,-0.0102,-0.0102,-0.0102,-0.0102,0,0.0367,0.0398,0.0417,0.0436,0.0491,0.0487,0.0535,0.0533,0.0543,0.0576,0.0497,0.0507,0.0357,0.0283,0.0157,0.0027,0.0032,-0.0091,-0.0122,-0.0094,-0.0093,-0.0231,-0.0314,-0.0104,-0.0103,-0.0103,-0.0103,0,0.04,0.041,0.0457,0.0491,0.0507,0.0546,0.0598,0.0636,0.0629,0.0668,0.0666,0.0611,0.0517,0.0365,0.0203,0.0082,-0.013,-0.0105,-0.0055,-0.0078,-0.0266,-0.0346,-0.0496,-0.0575,-0.0195,-0.0195,-0.0196,0,0.042,0.0444,0.0498,0.0536,0.0553,0.0606,0.0652,0.0674,0.0719,0.0739,0.0771,0.0701,0.0672,0.0437,0.0214,0.0002,-0.0142,-0.0124,-0.015,-0.0263,-0.0375,-0.0439,-0.0499,-0.0135,-0.0135,-0.0135,-0.0135,0,0.0461,0.0475,0.0514,0.0589,0.0643,0.0712,0.0776,0.0829,0.0861,0.0899,0.0941,0.0924,0.0715,0.0526,0.0234,0.0078,-0.0215,-0.0128,-0.0262,-0.0346,-0.0405,-0.0499,-0.0114,-0.0134,-0.0134,-0.0134,-0.0134,-0.0134,0.0493,0.0528,0.0577,0.0649,0.0718,0.0804,0.0863,0.0943,0.103,0.1098,0.108,0.109,0.0817,0.0435,0.0197,-0.0192,-0.0228,-0.0309,-0.0398,-0.0453,-0.0526,-0.0131,-0.0178,-0.0178,-0.0178,-0.0178,-0.0179,0,0.0531,0.0569,0.0637,0.072,0.0796,0.0827,0.094,0.1005,0.1112,0.1203,0.1243,0.116,0.0804,0.0436,-0.0087,-0.039,-0.0522,-0.0565,-0.065,-0.0703,-0.0357,-0.035,-0.0414,-0.0414,-0.0414,-0.0414,-0.0413,-0.0413,0.0554,0.0613,0.0644,0.0765,0.0827,0.0926,0.099,0.1098,0.1192,0.1308,0.1362,0.1387,0.1164,0.0174,-0.0476,-0.0639,-0.0886,-0.0937,-0.108,-0.0835,-0.0818,-0.0802,-0.0814,-0.0974,-0.0975,-0.1373,-0.1377,-0.138]}],[{"header":{"parameterUnit":"m.s-1","parameterCategory":2,"la1":30.2991,"la2":30.254,"lo1":-89.0895,"lo2":-89.0444,"dy":0.0017,"dx":0.0017,"nx":28,"ny":28,"refTime":"2025-03-30T03:00:00:Z","depth":"2","parameterNumber":2,"parameterNumberName":"U-component_of_CURRENTS"},"data":[0,0,0,0,0,0,0,0,0,0,0,0,0,0,0,0,0,0,0,0,0,0,0,0,0,0,0,0,0,0,0,0,0,0,0,0,0,0,0,0,0,0,0,0,0,0,0,0,0,0,0,0,0,0,0,0,0,0,0.224,0.224,0,0.2223,0.2222,0.2222,0.2187,0.2187,0.2186,0.2185,0.2161,0.2161,0.2161,0,0,0,0,0,0,0,0,0,0,0,0,0,0.2255,0.2255,0.224,0.224,0.224,0.2223,0.2222,0.2222,0.2187,0.2187,0.2186,0.2185,0.2161,0.2161,0.2161,0,0,0,0,0,0,0,0,0,0,0,0,0,0.2242,0.2255,0.224,0.2222,0.222,0.2223,0.2222,0.2222,0.2187,0.2186,0.2186,0.2185,0.2161,0.2161,0.2161,0.2175,0,0,0.216,0.216,0,0,0,0,0,0,0,0,0.2243,0.2242,0.2224,0.2223,0.2221,0.2208,0.2219,0.2206,0.2187,0.2198,0.2185,0.2185,0.2178,0.2176,0.2172,0.2174,0.2173,0.216,0.216,0.216,0.216,0,0,0,0,0,0,0,0.2244,0.2242,0.2231,0.2225,0.2223,0.2219,0.2216,0.2216,0.2191,0.2197,0.2195,0.2196,0.2176,0.2173,0.2171,0.2173,0.216,0.216,0.216,0.216,0.2229,0.2231,0,0,0,0,0,0,0.225,0.2243,0.2232,0.2231,0.2232,0.2219,0.2216,0.2211,0.2191,0.2188,0.2197,0.2194,0.2173,0.2172,0.217,0.2216,0.216,0.216,0.2159,0.2227,0.2229,0.2231,0,0,0,0,0,0,0.225,0.2249,0.2233,0.2238,0.2236,0.222,0.2215,0.2212,0.2214,0.2191,0.2187,0.2204,0.2173,0.2171,0.2186,0.2213,0.2159,0.2159,0.2224,0.2228,0.223,0.2288,0,0,0,0,0,0,0.2251,0.2249,0.2255,0.2239,0.2236,0.2245,0.2216,0.2212,0.2217,0.2214,0.2197,0.2193,0.2172,0.2186,0.2186,0.2212,0.2159,0.2222,0.2226,0.2229,0.2283,0.2292,0.23,0,0,0,0,0,0.2251,0.2258,0.2255,0.2254,0.2242,0.2246,0.2245,0.2229,0.2218,0.2227,0.2219,0.2194,0.2209,0.2188,0.2186,0.2213,0.222,0.2225,0.2229,0.2279,0.229,0.23,0,0,0,0,0,0,0.2264,0.2255,0.2251,0.2254,0.2257,0.2241,0.2249,0.224,0.224,0.224,0.2214,0.2211,0.2235,0.2223,0.22,0.2248,0.2213,0.2218,0.2252,0.2262,0.2271,0.2273,0.2159,0,0,0,0,0,0.2272,0.2277,0.227,0.2275,0.2279,0.2269,0.2271,0.2263,0.2258,0.2257,0.2246,0.2245,0.2253,0.2256,0.2258,0.2282,0.228,0.2302,0.2311,0.2318,0.2322,0.235,0.2361,0.2246,0.2246,0.2246,0,0,0.2277,0.2276,0.2277,0.228,0.2279,0.2289,0.2268,0.2278,0.2288,0.2257,0.2271,0.2272,0.2267,0.2293,0.2304,0.2285,0.2352,0.2323,0.2329,0.2329,0.2356,0.2367,0.2377,0.2249,0.2248,0.2248,0,0,0.2288,0.2293,0.2298,0.2307,0.2316,0.2314,0.2322,0.2318,0.2321,0.2339,0.2325,0.2347,0.2348,0.2356,0.2359,0.2419,0.2395,0.2422,0.2463,0.2491,0.25,0.2508,0.2526,0.2535,0.2426,0.2426,0.2426,0,0.2293,0.2299,0.2303,0.2315,0.2325,0.2328,0.234,0.235,0.2352,0.2366,0.2352,0.2384,0.2381,0.2419,0.244,0.2437,0.2443,0.2421,0.2501,0.2508,0.2516,0.2532,0.2541,0.2429,0.2429,0.2428,0.2428,0,0.2305,0.2316,0.2325,0.234,0.2356,0.237,0.2385,0.2406,0.2412,0.2419,0.246,0.2463,0.2481,0.2492,0.2481,0.2539,0.2524,0.2506,0.247,0.253,0.2544,0.2552,0.2434,0.2433,0.2432,0.2431,0,0,0.2283,0.2323,0.2324,0.2336,0.237,0.2377,0.2419,0.2449,0.2473,0.2495,0.2526,0.256,0.2565,0.2571,0.257,0.2598,0.2658,0.2577,0.2577,0.2586,0.2716,0.2699,0.2706,0.2652,0.2654,0.2655,0.2706,0,0.2284,0.2309,0.2333,0.236,0.2373,0.2407,0.2441,0.2477,0.2506,0.2541,0.2572,0.26,0.2594,0.2607,0.2639,0.2651,0.2683,0.2646,0.2664,0.2664,0.2634,0.2716,0.25,0.2527,0.2714,0.2716,0.2717,0,0.2275,0.2296,0.2321,0.2367,0.2377,0.2399,0.2455,0.2489,0.2555,0.2579,0.2628,0.2645,0.2703,0.2679,0.2744,0.272,0.2728,0.2734,0.2736,0.2704,0.2663,0.2497,0.2535,0.2731,0.2729,0.2728,0.2727,0,0.2239,0.2282,0.2302,0.2317,0.2373,0.2397,0.2432,0.2499,0.2533,0.2607,0.2637,0.2701,0.2733,0.2765,0.2793,0.2771,0.2854,0.2819,0.2813,0.281,0.2622,0.2601,0.2867,0.2867,0.2867,0.2867,0.2866,0,0.222,0.2234,0.2285,0.2294,0.2324,0.2375,0.2417,0.2467,0.254,0.2581,0.2652,0.2693,0.2757,0.2809,0.282,0.2856,0.288,0.284,0.2834,0.2639,0.262,0.2786,0.2776,0.2868,0.2868,0.2868,0.2867,0,0.2173,0.2208,0.2231,0.2287,0.2305,0.2327,0.24,0.243,0.2511,0.2568,0.2595,0.2703,0.2777,0.2834,0.2893,0.2889,0.292,0.292,0.2691,0.2658,0.2846,0.2839,0.2919,0.2919,0.2919,0.2919,0.2919,0,0.215,0.2158,0.2211,0.2223,0.2248,0.2289,0.2316,0.2402,0.244,0.2563,0.2586,0.2695,0.2753,0.2857,0.2872,0.2908,0.2938,0.2723,0.2649,0.2872,0.2857,0.285,0.2842,0.2416,0.2412,0.2409,0.2406,0,0.2108,0.2129,0.2151,0.2175,0.2199,0.2223,0.2273,0.2292,0.2393,0.245,0.2531,0.2593,0.2714,0.2671,0.2744,0.273,0.2703,0.2659,0.2949,0.2452,0.2406,0.2389,0.2397,0.2376,0.2379,0.2381,0.2383,0.2384,0.2076,0.2078,0.2105,0.2119,0.2142,0.214,0.2127,0.2184,0.2223,0.2272,0.2399,0.2421,0.2488,0.2497,0.2446,0.2416,0.2601,0.2477,0.2483,0.2494,0.2442,0.2401,0.2359,0.2362,0.2364,0.2366,0.2368,0,0.2025,0.2034,0.2046,0.2048,0.2027,0.2069,0.208,0.2044,0.2042,0.2124,0.2176,0.2053,0.2054,0.211,0.2033,0.2071,0.2006,0.1977,0.1857,0.1891,0.1921,0.1834,0.1592,0.1589,0.1587,0.1584,0,0,0.2002,0.1984,0.1983,0.1925,0.1924,0.186,0.1839,0.181,0.1834,0.1804,0.1804,0.1956,0.2064,0.1787,0.178,0.1665,0.1751,0.1603,0.2236,0.2129,0.2154,0.2236,0.2147,0,0,0,0,0]},{"header":{"parameterUnit":"m.s-1","parameterCategory":2,"la1":30.2991,"la2":30.254,"lo1":-89.0895,"lo2":-89.0444,"dy":0.0017,"dx":0.0017,"nx":28,"ny":28,"refTime":"2025-03-30T03:00:00:Z","depth":"2","parameterNumber":3,"parameterNumberName":"V-component_of_CURRENTS"},"data":[0,0,0,0,0,0,0,0,0,0,0,0,0,0,0,0,0,0,0,0,0,0,0,0,0,0,0,0,0,0,0,0,0,0,0,0,0,0,0,0,0,0,0,0,0,0,0,0,0,0,0,0,0,0,0,0,0,0,-0.0013,-0.0014,0,-0.0069,-0.007,-0.0071,-0.0106,-0.0106,-0.0106,-0.0106,-0.0196,-0.0199,-0.0201,0,0,0,0,0,0,0,0,0,0,0,0,0,0.0008,0.0008,-0.0013,-0.0014,-0.0014,-0.0069,-0.007,-0.0071,-0.0106,-0.0106,-0.0106,-0.0106,-0.0196,-0.0198,-0.0201,0,0,0,0,0,0,0,0,0,0,0,0,0,-0.0021,0.0008,-0.0013,-0.0037,-0.004,-0.0069,-0.007,-0.0071,-0.0106,-0.0106,-0.0106,-0.0106,-0.0195,-0.0198,-0.0202,-0.0222,0,0,-0.0212,-0.0214,0,0,0,0,0,0,0,0,-0.002,-0.0022,-0.0033,-0.0036,-0.0039,-0.0079,-0.0096,-0.0123,-0.0106,-0.0082,-0.0106,-0.0106,-0.0159,-0.0166,-0.0178,-0.0226,-0.023,-0.0213,-0.0215,-0.0216,-0.0217,0,0,0,0,0,0,0,-0.0018,-0.002,-0.0037,-0.0034,-0.0037,-0.0064,-0.0068,-0.0101,-0.0122,-0.0084,-0.0087,-0.0091,-0.0161,-0.0174,-0.018,-0.0231,-0.0213,-0.0216,-0.0218,-0.0219,-0.0287,-0.0287,0,0,0,0,0,0,-0.0005,-0.0018,-0.0035,-0.0039,-0.0028,-0.0064,-0.0069,-0.0067,-0.0121,-0.0128,-0.009,-0.0092,-0.0168,-0.0176,-0.0184,-0.019,-0.0216,-0.022,-0.0222,-0.0287,-0.0287,-0.0287,0,0,0,0,0,0,-0.0004,-0.0005,-0.0033,-0.0029,-0.0034,-0.0064,-0.0063,-0.0068,-0.0078,-0.0124,-0.0133,-0.0093,-0.0169,-0.0179,-0.0204,-0.0195,-0.0221,-0.0224,-0.0288,-0.0287,-0.0287,-0.0217,0,0,0,0,0,0,-0.0003,-0.0005,-0.0002,-0.0028,-0.0034,-0.0042,-0.0063,-0.0069,-0.0079,-0.0082,-0.0129,-0.0138,-0.0169,-0.0198,-0.0208,-0.02,-0.0227,-0.0288,-0.0287,-0.0287,-0.022,-0.0214,-0.021,0,0,0,0,0,-0.0002,0.0006,-0.0001,-0.0003,-0.0027,-0.0042,-0.0048,-0.0071,-0.0079,-0.008,-0.0109,-0.0136,-0.0201,-0.0201,-0.0212,-0.0205,-0.0288,-0.0288,-0.0287,-0.0222,-0.0215,-0.021,0,0,0,0,0,0,0.0017,0.0003,-0.0006,-0.0002,-0.0017,-0.0047,-0.005,-0.0065,-0.0089,-0.0091,-0.0135,-0.0145,-0.0164,-0.0195,-0.0194,-0.0223,-0.0249,-0.025,-0.0196,-0.019,-0.0185,-0.0165,-0.023,0,0,0,0,0,0.0024,0.0026,0.0007,0.0009,0.0005,-0.0021,-0.0031,-0.0043,-0.0067,-0.0078,-0.0109,-0.0143,-0.0171,-0.0187,-0.0218,-0.0236,-0.0262,-0.0238,-0.0233,-0.0229,-0.022,-0.0252,-0.0249,-0.0284,-0.0284,-0.0284,0,0,0.0032,0.0024,0.0025,0.0013,-0.0,0.0002,-0.0027,-0.0033,-0.0031,-0.0084,-0.0093,-0.0127,-0.0172,-0.0188,-0.02,-0.0212,-0.0232,-0.0228,-0.0223,-0.0217,-0.0251,-0.0248,-0.0245,-0.0284,-0.0284,-0.0284,0,0,0.0053,0.0044,0.0054,0.0047,0.0035,0.002,0.0023,-0.0,-0.0011,-0.0025,-0.0059,-0.0084,-0.0131,-0.0155,-0.0175,-0.0162,-0.0204,-0.0174,-0.0133,-0.0165,-0.0162,-0.016,-0.0182,-0.0183,-0.0172,-0.0172,-0.0171,0,0.0065,0.0076,0.0054,0.0064,0.0066,0.0035,0.005,0.0034,0.0006,0.0003,-0.0018,-0.0075,-0.0113,-0.0129,-0.0124,-0.0149,-0.0172,-0.0151,-0.0157,-0.0156,-0.0155,-0.0179,-0.018,-0.0168,-0.0168,-0.0169,-0.0169,0,0.0094,0.0104,0.0111,0.0115,0.0112,0.012,0.0102,0.0098,0.008,0.0062,0.0041,-0.0011,-0.0042,-0.006,-0.009,-0.0098,-0.0118,-0.0146,-0.0169,-0.0147,-0.0174,-0.0176,-0.0163,-0.0164,-0.0165,-0.0166,0,0,0.0125,0.0131,0.0135,0.0151,0.0144,0.0149,0.0155,0.0152,0.0163,0.0123,0.0128,0.0075,0.0047,0.0022,-0.002,-0.0048,-0.0063,-0.0088,-0.0091,-0.0102,-0.0126,-0.0134,-0.0139,-0.0093,-0.0093,-0.0093,-0.0145,0,0.0159,0.0192,0.0184,0.022,0.0238,0.022,0.0233,0.0225,0.0206,0.02,0.0146,0.013,0.0078,0.0066,0.0029,-0.0038,-0.0068,-0.0045,-0.0152,-0.0155,-0.016,-0.0141,-0.0119,-0.0163,-0.0148,-0.0148,-0.0149,0,0.0195,0.0214,0.0253,0.0284,0.0291,0.0305,0.0325,0.0332,0.0311,0.0294,0.0262,0.0219,0.0177,0.0126,0.0027,0.0043,-0.0031,-0.0089,-0.0093,-0.0126,-0.0169,-0.0185,-0.0169,-0.0154,-0.0153,-0.0153,-0.0153,0,0.0233,0.0267,0.0302,0.0311,0.0334,0.0352,0.0365,0.036,0.0381,0.0352,0.0358,0.0292,0.0267,0.0167,0.0051,0.0038,-0.0062,-0.0099,-0.0176,-0.0178,-0.0191,-0.0194,-0.017,-0.017,-0.0169,-0.0169,-0.0169,0,0.0274,0.0305,0.0324,0.0343,0.0399,0.0396,0.0445,0.0444,0.0454,0.0485,0.0411,0.0419,0.0276,0.0202,0.0081,-0.0046,-0.0041,-0.016,-0.019,-0.0166,-0.0165,-0.0187,-0.0189,-0.0171,-0.0171,-0.017,-0.017,0,0.0307,0.0317,0.0364,0.0398,0.0415,0.0454,0.0508,0.0544,0.0539,0.0576,0.0574,0.0519,0.0426,0.028,0.0121,0.0005,-0.0126,-0.0177,-0.0133,-0.0156,-0.0229,-0.0227,-0.0265,-0.0265,-0.0266,-0.0266,-0.0267,0,0.0327,0.0352,0.0405,0.0443,0.046,0.0515,0.056,0.0582,0.0625,0.0642,0.067,0.0602,0.0567,0.0338,0.0124,-0.0081,-0.0118,-0.0203,-0.0228,-0.0213,-0.0238,-0.0235,-0.0231,-0.022,-0.022,-0.022,-0.022,0,0.0368,0.0382,0.0419,0.0493,0.0548,0.0615,0.0678,0.0727,0.0757,0.0792,0.0825,0.0804,0.0599,0.0407,0.0127,-0.0018,-0.0169,-0.021,-0.0207,-0.0196,-0.0174,-0.0198,-0.0196,-0.022,-0.022,-0.022,-0.022,-0.022,0.0399,0.0431,0.0478,0.055,0.0619,0.0702,0.0758,0.083,0.0908,0.0957,0.0939,0.0906,0.0691,0.0344,0.01,-0.0164,-0.0157,-0.0257,-0.0256,-0.0255,-0.0237,-0.0217,-0.0267,-0.0267,-0.0267,-0.0268,-0.0268,0,0.0435,0.047,0.0535,0.0616,0.069,0.0725,0.083,0.088,0.0973,0.1025,0.1049,0.0844,0.0644,0.0388,0.0007,-0.0219,-0.0241,-0.0297,-0.0272,-0.027,-0.0269,-0.0251,-0.0286,-0.0287,-0.0287,-0.0288,0,0,0.0455,0.0509,0.0536,0.0653,0.0718,0.0812,0.0872,0.095,0.1007,0.1045,0.1037,0.1017,0.0726,0.0449,0.0147,-0.0071,-0.0126,-0.0121,-0.0081,-0.0014,-0.0011,-0.022,-0.0187,0,0,0,0,0]}],[{"header":{"parameterUnit":"m.s-1","parameterCategory":2,"la1":30.2991,"la2":30.254,"lo1":-89.0895,"lo2":-89.0444,"dy":0.0017,"dx":0.0017,"nx":28,"ny":28,"refTime":"2025-03-30T03:00:00:Z","depth":"4","parameterNumber":2,"parameterNumberName":"U-component_of_CURRENTS"},"data":[0,0,0,0,0,0,0,0,0,0,0,0,0,0,0,0,0,0,0,0,0,0,0,0,0,0,0,0,0,0,0,0,0,0,0,0,0,0,0,0,0,0,0,0,0,0,0,0,0,0,0,0,0,0,0,0,0,0,0.15,0.15,0,0.1556,0.1557,0.1557,0.1599,0.16,0.16,0.1601,0.1656,0.1657,0.1657,0,0,0,0,0,0,0,0,0,0,0,0,0,0.1412,0.1414,0.1499,0.15,0.1501,0.1556,0.1557,0.1557,0.1599,0.16,0.1601,0.1601,0.1655,0.1656,0.1658,0,0,0,0,0,0,0,0,0,0,0,0,0,0.1455,0.1414,0.1499,0.1531,0.1534,0.1556,0.1557,0.1557,0.1599,0.16,0.1601,0.1602,0.1655,0.1656,0.1658,0.1649,0,0,0.1662,0.1662,0,0,0,0,0,0,0,0,0.1453,0.1458,0.1525,0.1528,0.1532,0.1574,0.1546,0.1589,0.1599,0.1572,0.1601,0.1602,0.1629,0.1632,0.1638,0.1651,0.1653,0.1662,0.1663,0.1663,0.1664,0,0,0,0,0,0,0,0.145,0.1456,0.152,0.1526,0.1531,0.1537,0.1544,0.1554,0.1593,0.1574,0.1578,0.1588,0.1631,0.1636,0.164,0.1654,0.1662,0.1663,0.1664,0.1665,0.1764,0.1766,0,0,0,0,0,0,0.1448,0.1453,0.1518,0.1522,0.1497,0.1538,0.1545,0.1558,0.1593,0.16,0.1587,0.159,0.1634,0.1638,0.1642,0.1717,0.1663,0.1665,0.1665,0.1762,0.1764,0.1766,0,0,0,0,0,0,0.1446,0.1453,0.1516,0.149,0.1499,0.1539,0.1552,0.1558,0.1596,0.1603,0.161,0.1622,0.1635,0.164,0.1684,0.1716,0.1665,0.1667,0.176,0.1763,0.1765,0.1814,0,0,0,0,0,0,0.1443,0.1452,0.1473,0.149,0.1501,0.1548,0.1551,0.1559,0.16,0.1605,0.1635,0.1639,0.1636,0.1682,0.1685,0.1717,0.1668,0.1758,0.1761,0.1764,0.181,0.1818,0.1825,0,0,0,0,0,0.1439,0.1457,0.1474,0.1483,0.1524,0.1549,0.1555,0.1584,0.1601,0.1621,0.1648,0.164,0.1706,0.1684,0.1688,0.1721,0.1756,0.176,0.1764,0.1807,0.1817,0.1825,0,0,0,0,0,0,0.143,0.1464,0.1483,0.1511,0.154,0.1558,0.1584,0.1602,0.1638,0.1654,0.1659,0.1665,0.1716,0.1714,0.169,0.1762,0.1731,0.1736,0.1763,0.1772,0.1779,0.1777,0.1669,0,0,0,0,0,0.1438,0.1465,0.1494,0.1521,0.1539,0.1569,0.1589,0.161,0.1637,0.1656,0.1678,0.1705,0.1729,0.1749,0.1766,0.1803,0.1803,0.1829,0.1837,0.1843,0.1845,0.1879,0.189,0.178,0.178,0.1779,0,0,0.1442,0.1466,0.1482,0.1522,0.1549,0.1576,0.1584,0.1624,0.1653,0.1655,0.1711,0.1732,0.1745,0.1789,0.1812,0.1796,0.1876,0.1848,0.1853,0.1852,0.1885,0.1895,0.1905,0.1782,0.1782,0.1781,0,0,0.1451,0.1488,0.1511,0.1538,0.1585,0.1602,0.1622,0.1661,0.1691,0.1739,0.1752,0.1796,0.1832,0.185,0.1862,0.1922,0.1914,0.1935,0.1971,0.2005,0.2014,0.2022,0.2039,0.2048,0.194,0.194,0.194,0,0.146,0.1489,0.1521,0.1549,0.1577,0.1618,0.1646,0.1679,0.173,0.1759,0.1768,0.1845,0.1859,0.1909,0.1934,0.1938,0.1951,0.1933,0.2013,0.2021,0.2028,0.2044,0.2053,0.1943,0.1942,0.1942,0.1942,0,0.1475,0.1512,0.153,0.158,0.1612,0.1646,0.1691,0.1737,0.178,0.181,0.1882,0.1909,0.1955,0.1971,0.1971,0.2036,0.2027,0.2016,0.1986,0.2042,0.2055,0.2064,0.1947,0.1946,0.1945,0.1944,0,0,0.1462,0.1528,0.1539,0.1566,0.1634,0.1656,0.1719,0.1777,0.1823,0.1882,0.194,0.1995,0.2022,0.2038,0.2054,0.2085,0.215,0.208,0.2081,0.2089,0.2222,0.2092,0.2088,0.2158,0.2159,0.2161,0.221,0,0.147,0.1514,0.1552,0.1606,0.1632,0.1694,0.1743,0.1805,0.1865,0.1931,0.1981,0.2041,0.2044,0.208,0.2115,0.2145,0.2176,0.2137,0.2173,0.2174,0.2045,0.2095,0.2167,0.2217,0.2219,0.222,0.2221,0,0.1469,0.1501,0.1548,0.1618,0.1638,0.1681,0.1772,0.1824,0.1922,0.1971,0.2045,0.2086,0.216,0.2148,0.2227,0.2207,0.2223,0.2235,0.2237,0.2101,0.206,0.215,0.2236,0.2235,0.2234,0.2233,0.2232,0,0.1426,0.1498,0.1536,0.156,0.1644,0.169,0.1746,0.1842,0.1897,0.2009,0.2061,0.2144,0.2201,0.2241,0.2281,0.2266,0.2351,0.2327,0.2221,0.2212,0.2291,0.2282,0.2375,0.2375,0.2375,0.2375,0.2375,0,0.1404,0.1439,0.1524,0.1542,0.1599,0.1672,0.1748,0.1819,0.1925,0.1985,0.2084,0.2135,0.2231,0.2289,0.2306,0.229,0.2375,0.2232,0.2218,0.2311,0.2304,0.2297,0.2287,0.2377,0.2376,0.2376,0.2376,0,0.1348,0.1405,0.1451,0.1544,0.1579,0.1623,0.1743,0.1792,0.1906,0.199,0.2032,0.2157,0.2225,0.2296,0.2363,0.2308,0.2313,0.2285,0.2387,0.2378,0.2143,0.2136,0.216,0.2156,0.2153,0.215,0.2147,0,0.1319,0.1338,0.1437,0.1468,0.1517,0.1596,0.1647,0.1771,0.1823,0.1979,0.2006,0.2124,0.2188,0.2177,0.2261,0.228,0.2258,0.2241,0.218,0.2138,0.2123,0.2121,0.2119,0.2142,0.2141,0.214,0.2139,0,0.1264,0.1313,0.1349,0.1409,0.1468,0.1521,0.1607,0.1631,0.1767,0.1886,0.1929,0.1968,0.2041,0.2088,0.2125,0.2135,0.2239,0.2204,0.221,0.2153,0.2116,0.2104,0.2106,0.2127,0.2129,0.213,0.213,0,0.1229,0.1237,0.1293,0.1333,0.1402,0.1424,0.1479,0.1534,0.1598,0.1765,0.1773,0.1897,0.2012,0.2014,0.2047,0.205,0.2015,0.1943,0.1962,0.1976,0.1895,0.182,0.1732,0,0,0,0,0,0.1185,0.1181,0.1212,0.1245,0.1307,0.1348,0.1442,0.15,0.1626,0.161,0.1686,0.1741,0.1789,0.1858,0.1824,0.1977,0.203,0.193,0.1958,0.206,0.2074,0.1996,0,0,0,0,0,0,0.1154,0.118,0.1177,0.1163,0.1173,0.1227,0.1283,0.1367,0.1365,0.15,0.1535,0.164,0.1716,0.179,0.1792,0.1813,0.1796,0.2013,0.2008,0.2052,0.2064,0.2076,0.2,0,0,0,0,0]},{"header":{"parameterUnit":"m.s-1","parameterCategory":2,"la1":30.2991,"la2":30.254,"lo1":-89.0895,"lo2":-89.0444,"dy":0.0017,"dx":0.0017,"nx":28,"ny":28,"refTime":"2025-03-30T03:00:00:Z","depth":"4","parameterNumber":3,"parameterNumberName":"V-component_of_CURRENTS"},"data":[0,0,0,0,0,0,0,0,0,0,0,0,0,0,0,0,0,0,0,0,0,0,0,0,0,0,0,0,0,0,0,0,0,0,0,0,0,0,0,0,0,0,0,0,0,0,0,0,0,0,0,0,0,0,0,0,0,0,-0.0035,-0.0035,0,-0.0061,-0.0061,-0.0062,-0.0079,-0.0079,-0.0079,-0.0079,-0.0135,-0.0137,-0.0138,0,0,0,0,0,0,0,0,0,0,0,0,0,-0.0037,-0.0036,-0.0035,-0.0035,-0.0036,-0.0061,-0.0061,-0.0062,-0.0079,-0.0079,-0.0079,-0.0079,-0.0135,-0.0137,-0.0138,0,0,0,0,0,0,0,0,0,0,0,0,0,-0.0047,-0.0036,-0.0035,-0.0047,-0.0048,-0.0061,-0.0062,-0.0062,-0.0079,-0.0079,-0.0079,-0.0079,-0.0134,-0.0137,-0.0139,-0.0151,0,0,-0.0145,-0.0146,0,0,0,0,0,0,0,0,-0.0047,-0.0047,-0.0045,-0.0046,-0.0047,-0.0066,-0.0083,-0.0093,-0.0079,-0.0068,-0.0079,-0.0079,-0.0115,-0.0118,-0.0124,-0.0153,-0.0156,-0.0146,-0.0147,-0.0148,-0.0148,0,0,0,0,0,0,0,-0.0046,-0.0046,-0.0046,-0.0045,-0.0047,-0.0063,-0.0064,-0.0085,-0.0092,-0.0069,-0.007,-0.0072,-0.0116,-0.0122,-0.0125,-0.0157,-0.0146,-0.0147,-0.0149,-0.015,-0.0193,-0.0193,0,0,0,0,0,0,-0.0039,-0.0045,-0.0045,-0.0047,-0.0046,-0.0063,-0.0064,-0.0061,-0.0091,-0.0095,-0.0072,-0.0072,-0.0118,-0.0123,-0.0127,-0.0133,-0.0148,-0.015,-0.0151,-0.0193,-0.0193,-0.0193,0,0,0,0,0,0,-0.0039,-0.0039,-0.0044,-0.0047,-0.0048,-0.0062,-0.0058,-0.0061,-0.0066,-0.0092,-0.0097,-0.0073,-0.0118,-0.0124,-0.0139,-0.0135,-0.0151,-0.0153,-0.0193,-0.0193,-0.0193,-0.015,0,0,0,0,0,0,-0.0039,-0.0038,-0.0036,-0.0046,-0.0048,-0.0048,-0.0058,-0.0062,-0.0067,-0.0068,-0.0096,-0.0101,-0.0119,-0.0136,-0.0141,-0.0139,-0.0155,-0.0193,-0.0193,-0.0193,-0.0152,-0.0149,-0.0146,0,0,0,0,0,-0.0039,-0.0033,-0.0036,-0.0036,-0.0044,-0.0048,-0.005,-0.0062,-0.0067,-0.0067,-0.0083,-0.01,-0.0138,-0.0137,-0.0144,-0.0142,-0.0194,-0.0193,-0.0193,-0.0153,-0.0149,-0.0146,0,0,0,0,0,0,-0.0032,-0.0034,-0.0038,-0.0033,-0.0039,-0.005,-0.0053,-0.0059,-0.0072,-0.0074,-0.0099,-0.0105,-0.0117,-0.0136,-0.0134,-0.0154,-0.0169,-0.017,-0.0137,-0.0133,-0.013,-0.0116,-0.0156,0,0,0,0,0,-0.0029,-0.0026,-0.0031,-0.0028,-0.0029,-0.0041,-0.0045,-0.005,-0.0062,-0.0067,-0.0086,-0.0105,-0.0121,-0.0131,-0.0149,-0.0161,-0.0181,-0.0164,-0.0161,-0.0158,-0.0151,-0.0179,-0.0178,-0.0191,-0.0191,-0.0191,0,0,-0.0025,-0.0027,-0.0025,-0.0027,-0.0033,-0.0027,-0.0044,-0.0045,-0.004,-0.0072,-0.0074,-0.0097,-0.0122,-0.0131,-0.0139,-0.0146,-0.0165,-0.0157,-0.0155,-0.0149,-0.0179,-0.0178,-0.0176,-0.0191,-0.0191,-0.0191,0,0,-0.0012,-0.0017,-0.0008,-0.0009,-0.0013,-0.0019,-0.0017,-0.0026,-0.0031,-0.0037,-0.0057,-0.0073,-0.01,-0.0114,-0.0125,-0.0117,-0.0148,-0.0126,-0.0099,-0.0127,-0.0126,-0.0126,-0.0148,-0.015,-0.0124,-0.0124,-0.0124,0,-0.0006,0.0006,-0.0007,0.0003,0.0008,-0.0011,0.0004,-0.0004,-0.0017,-0.0017,-0.0033,-0.0065,-0.009,-0.0097,-0.0094,-0.011,-0.013,-0.011,-0.0123,-0.0122,-0.0123,-0.0146,-0.0149,-0.0122,-0.0122,-0.0123,-0.0123,0,0.0015,0.0026,0.0031,0.004,0.0042,0.005,0.0043,0.0041,0.003,0.0021,0.0008,-0.0026,-0.0043,-0.0057,-0.0073,-0.0083,-0.0098,-0.0115,-0.013,-0.0119,-0.0145,-0.0148,-0.0119,-0.012,-0.0121,-0.0121,0,0,0.0037,0.0046,0.005,0.0064,0.0065,0.0072,0.008,0.0085,0.0095,0.0066,0.0074,0.0038,0.0016,0.0002,-0.0026,-0.0052,-0.0073,-0.008,-0.0082,-0.0098,-0.0132,-0.0129,-0.0133,-0.0094,-0.0095,-0.0095,-0.0149,0,0.0063,0.0091,0.0089,0.0121,0.0137,0.0129,0.0143,0.0141,0.0129,0.0128,0.0087,0.0079,0.0039,0.0033,-0.0,-0.0051,-0.008,-0.0056,-0.0144,-0.0146,-0.0142,-0.0136,-0.0096,-0.0152,-0.0152,-0.0153,-0.0153,0,0.0091,0.0108,0.0142,0.0171,0.0179,0.0193,0.0215,0.0224,0.0212,0.0201,0.0177,0.0146,0.0112,0.0072,-0.0012,0.0005,-0.0058,-0.0105,-0.0109,-0.0121,-0.0149,-0.0167,-0.016,-0.0159,-0.0159,-0.0159,-0.0158,0,0.0117,0.0149,0.0179,0.0187,0.0212,0.023,0.0244,0.0247,0.0266,0.0247,0.0253,0.0199,0.018,0.0096,0.0002,-0.0007,-0.0096,-0.0122,-0.018,-0.0181,-0.0186,-0.0186,-0.0187,-0.0187,-0.0187,-0.0186,-0.0186,0,0.0146,0.0173,0.0194,0.021,0.0258,0.0262,0.0305,0.0308,0.0322,0.0347,0.0293,0.0296,0.0184,0.0122,0.0022,-0.0082,-0.0083,-0.0171,-0.0193,-0.0167,-0.0165,-0.0189,-0.0188,-0.0188,-0.0188,-0.0188,-0.0187,0,0.0166,0.0178,0.0217,0.0252,0.0268,0.0301,0.0353,0.0383,0.0386,0.0416,0.0416,0.0372,0.029,0.0176,0.0043,-0.0043,-0.0151,-0.0192,-0.0144,-0.0164,-0.0224,-0.0221,-0.026,-0.026,-0.0261,-0.0261,-0.0261,0,0.0177,0.0198,0.0247,0.0277,0.0294,0.0343,0.0382,0.041,0.0443,0.0462,0.048,0.0425,0.0374,0.0201,0.0065,-0.0117,-0.0152,-0.0211,-0.0229,-0.0213,-0.0231,-0.0228,-0.0224,-0.0261,-0.0261,-0.0262,-0.0262,0,0.0201,0.0215,0.0245,0.0305,0.0351,0.0409,0.0462,0.0495,0.0528,0.0537,0.0538,0.0454,0.0362,0.0216,0.0078,-0.0059,-0.0173,-0.0215,-0.0216,-0.0234,-0.0216,-0.0232,-0.0229,-0.0263,-0.0262,-0.0262,-0.0262,0,0.0217,0.0239,0.0276,0.033,0.0392,0.0452,0.0482,0.0525,0.0562,0.0584,0.0583,0.0484,0.0431,0.0246,0.0117,-0.0012,-0.0058,-0.0115,-0.0122,-0.0123,-0.0072,-0.0029,-0.0031,0,0,0,0,0,0.0231,0.0252,0.03,0.0357,0.0419,0.0455,0.0527,0.0553,0.0588,0.0599,0.0595,0.0511,0.0336,0.0265,0.0137,0.0088,-0.0095,-0.007,-0.0168,-0.0268,-0.0267,-0.0231,0,0,0,0,0,0,0.0239,0.0277,0.0295,0.0368,0.0409,0.0481,0.0527,0.0555,0.0563,0.0581,0.0498,0.0463,0.0297,0.0408,0.0129,0.0091,0.0007,-0.0147,-0.015,-0.0268,-0.0267,-0.0266,-0.023,0,0,0,0,0]}]]